Cosmos 1151 - Orbit

View from above orbital plane
View from above orbital plane
View from above satellite
View from above satellite

Ground track
Ground track

The orbit data is extracted from the following two-line orbital elements,

1 11671U 80005A   13168.07734163  .00012022  00000-0  21204-3 0  1361
2 11671 082.4790 345.6304 0004259 218.4831 291.6225 15.50232744831181
Epoch (UTC): 17 June 2013 01:51:22
Eccentricity: 0.0004259
inclination: 82.4790°
perigee height: 413 km
apogee height: 419 km
right ascension of ascending node: 345.6304°
argument of perigee: 218.4831°
revolutions per day: 15.50232744
mean anomaly at epoch: 291.6225°
orbit number at epoch: 83118

The dashed part of the orbit path shows where the satellite is in the earth's shadow,  

Developed and maintained by Chris Peat, Heavens-Above GmbH. Please read the updated FAQ before sending e-mail. Imprint. DLR